Flag for Australia Weather past 2 weeks in Rockhampton, Queensland, Australia

Now
79 °F

Sunny.


Feels Like: 79 °F
Forecast: 54 / 82 °F
Wind: 10 mph from Southwest

Location: Rockhampton Airport

Current Time: Sep 4, 2015 at 4:52:43 PM

Latest Report: Sep 4, 2015 at 4:00 PM


Visibility: 10 mi

Pressure: 29.98 "Hg

Humidity: 32%

Dew point: 46 °F

Location of RockhamptonLocation

Historic Weather in Rockhampton — Graph

°F

Rockhampton temperature yesterday

Maximum temperature yesterday: 90 °F (at 1:00 PM)
Minimum temperature yesterday: 59 °F (at 11:30 PM)
Average temperature yesterday: 76 °F

Past Weeks' High & Low Weather Summary

 TemperatureHumidityPressure
High90 °F (Sep 3, 1:00 PM)100% (Aug 21, 11:05 PM)30.21 "Hg (Aug 21, 11:05 PM)
Low46 °F (Sep 1, 6:00 AM)3% (Sep 3, 5:00 PM)29.86 "Hg (Sep 3, 1:00 PM)
Average69 °F69%30.08 "Hg
* Reported Aug 20 3:00 PM — Sep 4 3:30 PM, Rockhampton, Weather by CustomWeather, © 2015

Note: Actual official high and low records may vary slightly from our data, if they occured in-between our weather recording intervals... More about our weather records

Advertising

Rockhampton weather history for previous 24 hours

 ConditionsComfort  
Time TempWeatherWind HumidityBarometerVisibility
3:30 PM
Fri, Sep 4
81 °FPassing clouds.8 mph24%29.98 "HgN/A
3:00 PM81 °FSunny.8 mph24%29.98 "Hg10 mi
2:30 PM81 °FPassing clouds.8 mph24%29.98 "HgN/A
2:00 PM81 °FSunny.9 mph18%29.98 "HgN/A
1:00 PM79 °FSunny.7 mph24%30.01 "HgN/A
12:30 PM77 °FSunny.8 mph24%30.04 "HgN/A
12:00 PM75 °FSunny.12 mph24%30.07 "HgN/A
11:30 AM75 °FSunny.9 mph25%30.07 "HgN/A
11:00 AM73 °FSunny.13 mph25%30.09 "HgN/A
10:30 AM73 °FSunny.9 mph25%30.09 "HgN/A
10:00 AM72 °FSunny.12 mph27%30.09 "HgN/A
9:30 AM70 °FSunny.8 mph33%30.12 "HgN/A
9:00 AM70 °FSunny.8 mph33%30.12 "HgN/A
8:30 AM68 °FSunny.7 mph38%30.09 "HgN/A
8:00 AM66 °FMild.6 mph40%30.09 "HgN/A
7:00 AM61 °FRefreshingly cool.3 mph48%30.09 "HgN/A
6:30 AM57 °FRefreshingly cool.5 mph51%30.07 "HgN/A
6:00 AM57 °FRefreshingly cool.3 mph55%30.07 "HgN/A
5:30 AM55 °FRefreshingly cool.3 mph55%30.07 "HgN/A
5:00 AM57 °FRefreshingly cool.5 mph55%30.04 "HgN/A
4:00 AM57 °FRefreshingly cool.5 mph48%30.04 "HgN/A
3:30 AM55 °FRefreshingly cool.No wind55%30.04 "HgN/A
3:00 AM54 °FCool.1 mph58%30.04 "HgN/A
2:00 AM55 °FRefreshingly cool.No wind55%30.04 "HgN/A
1:00 AM59 °FRefreshingly cool.1 mph48%30.04 "HgN/A
12:30 AM57 °FRefreshingly cool.3 mph55%30.04 "HgN/A
12:00 AM57 °FRefreshingly cool.No wind48%30.01 "HgN/A
11:30 PM
Thu, Sep 3
59 °FRefreshingly cool.No wind45%30.01 "HgN/A
11:00 PM61 °FRefreshingly cool.No wind42%30.01 "HgN/A
10:30 PM61 °FClear.No wind36%30.01 "Hg10 mi
10:00 PM61 °FClear.3 mph39%30.01 "Hg10 mi
9:30 PM63 °FClear.No wind37%30.01 "Hg10 mi
9:00 PM64 °FClear.No wind32%30.01 "Hg10 mi
8:30 PM68 °FClear.1 mph33%29.98 "Hg10 mi
8:00 PM72 °FClear.6 mph19%29.98 "Hg10 mi
7:00 PM73 °FClear.9 mph14%29.95 "Hg10 mi
6:30 PM77 °FClear.13 mph11%29.95 "HgN/A
6:00 PM79 °FClear.13 mph9%29.92 "Hg10 mi
5:30 PM81 °FClear.17 mph6%29.92 "Hg10 mi
5:00 PM84 °FClear.22 mph3%29.89 "Hg10 mi
4:30 PM86 °FSunny.22 mph4%29.89 "Hg10 mi
4:02 PM86 °FSunny.22 mph7%29.89 "Hg10 mi
Weather by CustomWeather, © 2015

See weather overviewHow to use our weather pages